Location: College Park
(38.9810°N, 76.9370°W)
Time: 04:37:07
(UTC-05:00)

OTV 5 (USA 277) - Pass Details

Date: 10 November 2017
Orbit: 404 x 417 km, 43.0° (Epoch: 07 September)

Event Time Altitude Azimuth Distance (km) Brightness Sun altitude
Exits shadow 05:21:54 42° 253° (WSW) 588 ? -16.4°
Maximum altitude 05:22:54 85° 338° (NNW) 408 ? -16.2°
Drops below altitude 10° 05:26:12 10° 69° (ENE) 1,456 ? -15.6°
Sets 05:28:18 0° 70° (ENE) 2,318 ? -15.2°
